Overview Statistics Trail Chart Weather Telemetry Raw packets
 

This is the latest recevied weather packets stored in our database for station/object EA7OC-10. If no packets are shown the sender has not sent any weather packets the latest 10 day(s).

<< 2 3 4 5 6 7 8 >>
Time Temp. Humidity Pressure Rain* Wind** Luminosity Snow
1788519249 42.22° C 22% 1021.7 hPa - - - -
1788518349 43.89° C 22% 1021.7 hPa - - - -
1788517449 42.22° C 23% 1021.9 hPa - - - -
1788515663 40.56° C 22% 1022.1 hPa - - - -
1788514763 42.22° C 22% 1021.9 hPa - - - -
1788513863 41.67° C 23% 1021.9 hPa - - - -
1788512958 41.11° C 23% 1022 hPa - - - -
1788512058 40° C 23% 1022 hPa - - - -
1788511158 38.33° C 23% 1022 hPa - - - -
1788510258 37.78° C 22% 1021.9 hPa - - - -
1788509358 37.78° C 23% 1021.8 hPa - - - -
1788508458 36.67° C 23% 1021.9 hPa - - - -
1788507557 35.56° C 23% 1022 hPa - - - -
1788506656 34.44° C 24% 1021.8 hPa - - - -
1788505756 32.22° C 24% 1021.7 hPa - - - -
1788504856 28.89° C 24% 1021.5 hPa - - - -
1788503956 26.67° C 24% 1021.3 hPa - - - -
1788503056 25° C 23% 1021 hPa - - - -
1788502154 24.44° C 23% 1021.1 hPa - - - -
1788501254 24.44° C 22% 1020.8 hPa - - - -
1788500354 24.44° C 23% 1020.7 hPa - - - -
1788499454 24.44° C 23% 1020.8 hPa - - - -
1788498554 25° C 22% 1020.8 hPa - - - -
1788497654 25° C 23% 1020.6 hPa - - - -
1788496753 25° C 22% 1020.4 hPa - - - -

* Rain since midnight (hover to see other rain measurements)
** Current wind speed in m/s (hover to see current wind gust speed)